777  
ASUS41 KCLE 240312  
RWRCLE  
OHIO REGIONAL WEATHER ROUNDUP  
NATIONAL WEATHER SERVICE WILMINGTON, OH  
1100 PM EDT SAT JUN 23 2018  
 
NOTE: "FAIR" INDICATES FEW OR NO CLOUDS BELOW 12,000 FEET WITH NO  
SIGNIFICANT WEATHER AND/OR S TO VISIBILITY
.  
 
OHZ001>008-015>018-024>027-034-035-043-044-240400-  
NORTHWEST OHIO  
 
CITY SKY/WX TMP DP RH WIND PRES REMARKS
 
DEFIANCE CLOUDY 69 66 90 SW3 29.79R  
FINDLAY CLOUDY 71 65 81 W6 29.79R  
TOLEDO EXPRESS MOCLDY 69 63 81 W6 29.79R  
TOLEDO EXEC CLOUDY 71 64 78 W9 29.79R  
LIMA CLOUDY 70 66 87 W6 29.81R  

 
 
OHZ009>014-019>023-028>033-038-089-240400-  
NORTHEAST OHIO  
 
CITY SKY/WX TMP DP RH WIND PRES REMARKS
 
CLE-HOPKINS MOCLDY 71 67 87 SW6 29.80R  
CLE-LAKEFRONT CLOUDY 72 65 78 SW8 29.77R  
CUY CO. ARPT MOCLDY 73 68 83 W12 29.80R  
LORAIN-ELYRIA CLOUDY 69 63 81 W5 29.80R  
ASHTABULA MOCLDY 66 66 100 CALM 29.80R  
AKRON-CANTON CLOUDY 71 63 75 SW6 29.82R  
WOOSTER FAIR 69 65 86 W7 29.82R  
MANSFIELD CLOUDY 70 63 78 W5 29.83R  
YOUNGSTOWN MOCLDY 68 67 96 SW3 29.81R  

 
 
OHZ042-051>053-060>062-070>072-077>081-240400-  
SOUTHWEST OHIO  
 
CITY SKY/WX TMP DP RH WIND PRES REMARKS
 
CINC-COVINGTON FAIR 72 64 76 SW3 29.84R  
CINC-LUNKEN CLOUDY 73 67 81 SW5 29.83R  
HAMILTON CLOUDY 72 68 87 CALM 29.84R  
DAYTON MOCLDY 69 64 84 SW8 29.85R  
WRIGHT-PAT AFB CLOUDY 72 64 78 SW5 29.83R  
DAYTON GENERAL MOCLDY 73 64 73 W3 29.84R  
WILMINGTON MOCLDY 71 66 84 W6 29.84R  

 
 
OHZ036-037-039>041-045>050-054>059-063>069-073>076-082>088-240400-  
CENTRAL AND SOUTHEAST OHIO  
 
CITY SKY/WX TMP DP RH WIND PRES REMARKS
 
COLUMBUS CLOUDY 75 63 66 W8 29.81S  
OSU AIRPORT CLOUDY 73 64 73 W9 29.82R  
BOLTON FIELD CLOUDY 72 64 76 W6 29.83S  
RICKENBACK AFB CLOUDY 71 66 84 SW3 29.81S  
NEWARK CLOUDY 73 65 75 SW5 29.82R  
MARION CLOUDY 71 63 75 CALM 29.82R  
LANCASTER CLOUDY 72 67 84 SW5 29.83S  
ZANESVILLE FAIR 69 63 81 CALM 29.83R  
NEW PHILLY MOCLDY 70 68 93 CALM 29.82R  

 
 
 
CLICK HERE TO GO TO PREVIOUS BULLETINS.

The Nexlab OH Page
The Nexlab PA Page Main Text Page